TimeCST,TemperatureF,Dew PointF,Humidity,Sea Level PressureIn,VisibilityMPH,Wind Direction,Wind SpeedMPH,Gust SpeedMPH,PrecipitationIn,Events,Conditions,WindDirDegrees,DateUTC
12:11 AM,12.2,10.4,92,30.04,10.0,Calm,Calm,-,N/A,,Clear,0,2013-02-27 06:11:00
12:31 AM,12.2,10.4,92,30.04,10.0,Calm,Calm,-,N/A,,Clear,0,2013-02-27 06:31:00
12:52 AM,10.4,8.6,92,30.03,10.0,Calm,Calm,-,N/A,,Clear,0,2013-02-27 06:52:00
1:11 AM,10.4,8.6,92,30.03,10.0,Calm,Calm,-,N/A,,Clear,0,2013-02-27 07:11:00
1:31 AM,10.4,8.6,92,30.03,10.0,Calm,Calm,-,N/A,,Clear,0,2013-02-27 07:31:00
1:52 AM,10.4,8.6,92,30.02,10.0,Calm,Calm,-,N/A,,Clear,0,2013-02-27 07:52:00
2:11 AM,8.6,6.8,92,30.02,10.0,Calm,Calm,-,N/A,,Clear,0,2013-02-27 08:11:00
2:31 AM,8.6,6.8,92,30.02,10.0,Calm,Calm,-,N/A,,Clear,0,2013-02-27 08:31:00
2:52 AM,8.6,6.8,92,30.01,10.0,Calm,Calm,-,N/A,,Clear,0,2013-02-27 08:52:00
3:31 AM,6.8,3.2,85,30.01,10.0,Calm,Calm,-,N/A,,Clear,0,2013-02-27 09:31:00
3:52 AM,5.0,1.4,85,30.01,10.0,Calm,Calm,-,N/A,,Clear,0,2013-02-27 09:52:00
4:11 AM,6.8,5.0,92,30.01,10.0,Calm,Calm,-,N/A,,Clear,0,2013-02-27 10:11:00
4:31 AM,6.8,3.2,85,30.01,10.0,West,3.5,-,N/A,,Clear,280,2013-02-27 10:31:00
5:11 AM,5.0,1.4,85,30.02,10.0,Calm,Calm,-,N/A,,Clear,0,2013-02-27 11:11:00
5:31 AM,6.8,3.2,85,30.02,10.0,Calm,Calm,-,N/A,,Clear,0,2013-02-27 11:31:00
5:52 AM,8.6,6.8,92,30.02,10.0,Calm,Calm,-,N/A,,Clear,0,2013-02-27 11:52:00
6:31 AM,3.2,1.4,92,30.03,10.0,Calm,Calm,-,N/A,,Clear,0,2013-02-27 12:31:00
6:52 AM,3.2,-0.4,85,30.03,10.0,Calm,Calm,-,N/A,,Clear,0,2013-02-27 12:52:00
7:11 AM,1.4,-0.4,92,30.03,10.0,Calm,Calm,-,N/A,,Clear,0,2013-02-27 13:11:00
7:31 AM,3.2,1.4,92,30.03,10.0,Calm,Calm,-,N/A,,Clear,0,2013-02-27 13:31:00
7:51 AM,5.0,1.4,85,30.03,10.0,Calm,Calm,-,N/A,,Clear,0,2013-02-27 13:51:00
8:11 AM,8.6,6.8,92,30.03,10.0,Calm,Calm,-,N/A,,Clear,0,2013-02-27 14:11:00
8:51 AM,14.0,12.2,93,30.03,10.0,Calm,Calm,-,N/A,,Clear,0,2013-02-27 14:51:00
9:11 AM,17.6,14.0,86,30.03,10.0,Calm,Calm,-,N/A,,Clear,0,2013-02-27 15:11:00
9:31 AM,19.4,15.8,86,30.03,10.0,Calm,Calm,-,N/A,,Clear,0,2013-02-27 15:31:00
9:51 AM,21.2,14.0,74,30.03,10.0,Calm,Calm,-,N/A,,Clear,0,2013-02-27 15:51:00
10:11 AM,21.2,12.2,68,30.02,10.0,West,3.5,-,N/A,,Clear,270,2013-02-27 16:11:00
10:32 AM,21.2,12.2,68,30.03,10.0,West,3.5,-,N/A,,Clear,260,2013-02-27 16:32:00
10:51 AM,21.2,12.2,68,30.02,10.0,West,4.6,-,N/A,,Clear,260,2013-02-27 16:51:00
11:11 AM,24.8,15.8,69,30.03,10.0,West,3.5,-,N/A,,Clear,260,2013-02-27 17:11:00
11:32 AM,24.8,15.8,69,30.02,10.0,West,3.5,-,N/A,,Clear,260,2013-02-27 17:32:00
11:51 AM,26.6,15.8,64,30.02,10.0,West,3.5,-,N/A,,Clear,270,2013-02-27 17:51:00
12:11 PM,26.6,17.6,69,30.02,10.0,Calm,Calm,-,N/A,,Clear,0,2013-02-27 18:11:00
12:32 PM,28.4,19.4,69,30.02,10.0,West,3.5,-,N/A,,Clear,270,2013-02-27 18:32:00
12:51 PM,30.2,21.2,69,30.02,10.0,West,5.8,-,N/A,,Clear,270,2013-02-27 18:51:00
1:11 PM,32.0,23.0,69,30.01,10.0,West,4.6,-,N/A,,Clear,270,2013-02-27 19:11:00
1:32 PM,35.6,24.8,65,30.01,10.0,WNW,5.8,-,N/A,,Clear,300,2013-02-27 19:32:00
1:51 PM,39.2,23.0,52,30.01,10.0,North,10.4,-,N/A,,Clear,360,2013-02-27 19:51:00
2:32 PM,39.2,23.0,52,30.01,10.0,NNW,12.7,17.3,N/A,,Clear,340,2013-02-27 20:32:00
2:51 PM,39.2,21.2,49,30.02,10.0,North,11.5,-,N/A,,Clear,350,2013-02-27 20:51:00
3:11 PM,37.4,21.2,52,30.03,10.0,NNW,10.4,16.1,N/A,,Clear,340,2013-02-27 21:11:00
3:32 PM,37.4,21.2,52,30.03,10.0,North,10.4,-,N/A,,Clear,10,2013-02-27 21:32:00
3:51 PM,37.4,23.0,56,30.04,10.0,NNE,12.7,-,N/A,,Clear,30,2013-02-27 21:51:00
4:11 PM,35.6,24.8,65,30.05,10.0,NNE,11.5,19.6,N/A,,Clear,20,2013-02-27 22:11:00
4:32 PM,35.6,23.0,60,30.06,10.0,NNE,10.4,19.6,N/A,,Scattered Clouds,30,2013-02-27 22:32:00
4:51 PM,33.8,21.2,60,30.07,10.0,NE,12.7,20.7,N/A,,Scattered Clouds,40,2013-02-27 22:51:00
5:11 PM,32.0,23.0,69,30.08,10.0,NNE,13.8,19.6,N/A,,Mostly Cloudy,30,2013-02-27 23:11:00
5:32 PM,30.2,21.2,69,30.09,10.0,NNE,12.7,21.9,N/A,,Overcast,30,2013-02-27 23:32:00
5:51 PM,30.2,21.2,69,30.10,10.0,North,13.8,21.9,N/A,,Overcast,10,2013-02-27 23:51:00
6:11 PM,28.4,21.2,74,30.11,10.0,NE,11.5,17.3,N/A,,Overcast,40,2013-02-28 00:11:00
6:31 PM,28.4,21.2,74,30.12,10.0,NNE,8.1,-,N/A,,Overcast,30,2013-02-28 00:31:00
6:51 PM,28.4,21.2,74,30.12,10.0,NE,10.4,-,N/A,,Overcast,40,2013-02-28 00:51:00
7:11 PM,28.4,21.2,74,30.13,10.0,NNE,9.2,17.3,N/A,,Overcast,30,2013-02-28 01:11:00
7:31 PM,26.6,21.2,80,30.13,10.0,NE,10.4,-,N/A,,Overcast,40,2013-02-28 01:31:00
7:51 PM,26.6,21.2,80,30.13,10.0,North,10.4,-,N/A,,Overcast,10,2013-02-28 01:51:00
8:11 PM,26.6,21.2,80,30.13,10.0,North,13.8,-,N/A,,Overcast,10,2013-02-28 02:11:00
8:31 PM,26.6,21.2,80,30.14,10.0,NNE,11.5,19.6,N/A,,Overcast,20,2013-02-28 02:31:00
8:51 PM,26.6,21.2,80,30.14,10.0,NNE,13.8,19.6,N/A,,Overcast,20,2013-02-28 02:51:00
9:11 PM,26.6,21.2,80,30.15,10.0,NNE,8.1,-,N/A,,Overcast,20,2013-02-28 03:11:00
9:31 PM,26.6,21.2,80,30.15,10.0,NNE,5.8,18.4,N/A,,Overcast,30,2013-02-28 03:31:00
9:51 PM,26.6,21.2,80,30.15,10.0,NNE,8.1,-,N/A,,Overcast,20,2013-02-28 03:51:00
10:11 PM,26.6,21.2,80,30.15,10.0,NNE,12.7,20.7,N/A,,Overcast,30,2013-02-28 04:11:00
10:31 PM,26.6,21.2,80,30.15,10.0,NE,8.1,16.1,N/A,,Overcast,40,2013-02-28 04:31:00
10:51 PM,24.8,19.4,80,30.15,10.0,NE,10.4,16.1,N/A,,Overcast,40,2013-02-28 04:51:00
11:11 PM,24.8,19.4,80,30.15,10.0,NE,13.8,20.7,N/A,,Overcast,40,2013-02-28 05:11:00